SWA1776 KLAX-KLAS

Flight info

Callsign SWA1776
Flight time 0h 47m
Altitude 29000
Route ORCKA5 MISEN RNDRZ4
Aircraft B38M/M-SDE1FGHILORVWXY/HB1

Departure

Time 2026-05-07 23:24
Airport Los Angeles International Airport (KLAX)

Arrival

Time 2026-05-08 00:12
Airport Harry Reid International Airport (KLAS)
Time Latitude Longitude Altitude Speed Heading
2026-05-07 22:53 33.94583 -118.40479 125 ft 0 kts 103°
2026-05-07 23:13 33.94584 -118.40481 125 ft 2 kts 103°
2026-05-07 23:13 33.94587 -118.40498 122 ft 2 kts 103°
2026-05-07 23:13 33.94590 -118.40515 122 ft 2 kts 104°
2026-05-07 23:13 33.94593 -118.40531 123 ft 2 kts 104°
2026-05-07 23:14 33.94596 -118.40548 123 ft 2 kts 65°
2026-05-07 23:14 33.94586 -118.40558 121 ft 2 kts 356°
2026-05-07 23:14 33.94584 -118.40558 123 ft 0 kts 357°
2026-05-07 23:18 33.94597 -118.40560 123 ft 4 kts 353°
2026-05-07 23:18 33.94648 -118.40567 125 ft 10 kts 353°
2026-05-07 23:18 33.94731 -118.40579 124 ft 13 kts 352°
2026-05-07 23:18 33.94793 -118.40590 124 ft 9 kts 349°
2026-05-07 23:19 33.94854 -118.40591 124 ft 9 kts 30°
2026-05-07 23:19 33.94873 -118.40516 125 ft 11 kts 83°
2026-05-07 23:19 33.94884 -118.40405 126 ft 15 kts 83°
2026-05-07 23:19 33.94900 -118.40264 123 ft 18 kts 83°
2026-05-07 23:20 33.94917 -118.40100 123 ft 20 kts 84°
2026-05-07 23:20 33.94928 -118.39987 126 ft 10 kts 82°
2026-05-07 23:20 33.94955 -118.39925 123 ft 7 kts 43°
2026-05-07 23:20 33.94992 -118.39910 124 ft 3 kts 356°
2026-05-07 23:21 33.95021 -118.39920 123 ft 6 kts 336°
2026-05-07 23:21 33.95040 -118.39963 126 ft 6 kts 268°
2026-05-07 23:21 33.95037 -118.39995 124 ft 0 kts 264°
2026-05-07 23:23 33.95037 -118.40001 125 ft 2 kts 264°
2026-05-07 23:24 33.95014 -118.40228 124 ft 72 kts 263°
2026-05-07 23:24 33.94916 -118.41190 222 ft 148 kts 263°
2026-05-07 23:24 33.94757 -118.42556 702 ft 185 kts 264°
2026-05-07 23:24 33.94603 -118.44240 1214 ft 217 kts 264°
2026-05-07 23:25 33.94411 -118.46104 1723 ft 219 kts 264°
2026-05-07 23:25 33.94187 -118.47850 2199 ft 210 kts 262°
2026-05-07 23:25 33.93968 -118.49586 2629 ft 206 kts 263°
2026-05-07 23:25 33.93757 -118.51315 2953 ft 212 kts 262°
2026-05-07 23:26 33.93545 -118.53072 2931 ft 213 kts 262°
2026-05-07 23:26 33.93342 -118.54757 3318 ft 207 kts 262°
2026-05-07 23:26 33.93117 -118.56492 3907 ft 210 kts 255°
2026-05-07 23:26 33.92217 -118.57890 4576 ft 227 kts 215°
2026-05-07 23:27 33.88927 -118.58873 5899 ft 272 kts 170°
2026-05-07 23:27 33.87272 -118.57722 6572 ft 285 kts 135°
2026-05-07 23:27 33.86383 -118.55573 7244 ft 295 kts 99°
2026-05-07 23:28 33.86585 -118.53147 7920 ft 296 kts 69°
2026-05-07 23:28 33.87484 -118.50914 8556 ft 297 kts 56°
2026-05-07 23:28 33.88684 -118.48884 9210 ft 299 kts 50°
2026-05-07 23:28 33.89965 -118.46906 9844 ft 301 kts 50°
2026-05-07 23:29 33.91267 -118.44906 10479 ft 307 kts 49°
2026-05-07 23:29 33.92614 -118.42849 11133 ft 319 kts 49°
2026-05-07 23:29 33.93998 -118.40749 11755 ft 329 kts 49°
2026-05-07 23:29 33.95448 -118.38562 12385 ft 339 kts 49°
2026-05-07 23:30 33.96934 -118.36332 13027 ft 343 kts 49°
2026-05-07 23:30 33.98440 -118.34083 13664 ft 347 kts 49°
2026-05-07 23:30 33.99944 -118.31845 14286 ft 350 kts 50°
2026-05-07 23:30 34.01457 -118.29601 14550 ft 332 kts 50°
2026-05-07 23:31 34.02836 -118.27412 15126 ft 331 kts 54°
2026-05-07 23:31 34.04125 -118.25073 15730 ft 337 kts 56°
2026-05-07 23:31 34.05394 -118.22681 16349 ft 340 kts 57°
2026-05-07 23:31 34.06645 -118.20273 16974 ft 341 kts 57°
2026-05-07 23:32 34.07903 -118.17831 17599 ft 343 kts 57°
2026-05-07 23:32 34.09115 -118.15335 18243 ft 348 kts 59°
2026-05-07 23:32 34.10334 -118.12840 18770 ft 352 kts 58°
2026-05-07 23:32 34.11650 -118.10334 18997 ft 355 kts 56°
2026-05-07 23:33 34.13004 -118.07849 19004 ft 352 kts 56°
2026-05-07 23:33 34.14361 -118.05384 19009 ft 352 kts 55°
2026-05-07 23:33 34.15715 -118.02930 19005 ft 351 kts 55°
2026-05-07 23:33 34.17066 -118.00481 19002 ft 351 kts 55°
2026-05-07 23:34 34.18417 -117.98028 19002 ft 351 kts 55°
2026-05-07 23:34 34.19765 -117.95578 19147 ft 345 kts 55°
2026-05-07 23:34 34.21103 -117.93148 19718 ft 351 kts 55°
2026-05-07 23:34 34.22472 -117.90679 20300 ft 356 kts 55°
2026-05-07 23:35 34.23893 -117.88215 20871 ft 358 kts 53°
2026-05-07 23:35 34.25354 -117.85781 21443 ft 360 kts 53°
2026-05-07 23:35 34.26818 -117.83311 22019 ft 362 kts 53°
2026-05-07 23:35 34.28253 -117.80835 22599 ft 366 kts 53°
2026-05-07 23:36 34.29720 -117.78310 23208 ft 369 kts 53°
2026-05-07 23:36 34.31208 -117.75769 23771 ft 372 kts 53°
2026-05-07 23:36 34.32711 -117.73201 24285 ft 375 kts 53°
2026-05-07 23:36 34.34216 -117.70617 24806 ft 377 kts 54°
2026-05-07 23:37 34.35731 -117.68020 25345 ft 378 kts 53°
2026-05-07 23:37 34.37274 -117.65445 25938 ft 378 kts 52°
2026-05-07 23:37 34.38828 -117.62880 26538 ft 377 kts 52°
2026-05-07 23:37 34.40362 -117.60315 27148 ft 376 kts 52°
2026-05-07 23:38 34.41883 -117.57751 27738 ft 374 kts 53°
2026-05-07 23:38 34.43406 -117.55194 28246 ft 375 kts 52°
2026-05-07 23:38 34.44941 -117.52626 28745 ft 376 kts 53°
2026-05-07 23:38 34.46484 -117.50038 29014 ft 385 kts 53°
2026-05-07 23:39 34.48058 -117.47394 29048 ft 399 kts 52°
2026-05-07 23:39 34.49705 -117.44622 29050 ft 412 kts 53°
2026-05-07 23:39 34.51405 -117.41757 29059 ft 425 kts 53°
2026-05-07 23:39 34.53143 -117.38830 29055 ft 427 kts 53°
2026-05-07 23:40 34.56619 -117.32967 29059 ft 428 kts 53°
2026-05-07 23:40 34.60099 -117.27089 29052 ft 428 kts 53°
2026-05-07 23:41 34.63575 -117.21208 29026 ft 429 kts 53°
2026-05-07 23:41 34.65291 -117.18299 28921 ft 429 kts 53°
2026-05-07 23:41 34.67026 -117.15358 28914 ft 428 kts 53°
2026-05-07 23:42 34.70480 -117.09494 28924 ft 426 kts 53°
2026-05-07 23:42 34.73930 -117.03628 28934 ft 427 kts 53°
2026-05-07 23:43 34.77371 -116.97767 28946 ft 427 kts 53°
2026-05-07 23:43 34.80820 -116.91884 28956 ft 427 kts 53°
2026-05-07 23:44 34.84268 -116.85991 28962 ft 427 kts 53°
2026-05-07 23:44 34.87678 -116.80153 28957 ft 425 kts 53°
2026-05-07 23:45 34.91103 -116.74282 28954 ft 425 kts 53°
2026-05-07 23:45 34.94490 -116.68373 28947 ft 425 kts 54°
2026-05-07 23:46 34.97751 -116.62362 28894 ft 426 kts 62°
2026-05-07 23:46 35.01040 -116.56382 28920 ft 424 kts 50°
2026-05-07 23:47 35.04568 -116.50672 28902 ft 425 kts 55°
2026-05-07 23:47 35.07796 -116.44623 28774 ft 426 kts 54°
2026-05-07 23:48 35.09497 -116.41680 28506 ft 422 kts 53°
2026-05-07 23:48 35.11350 -116.38925 28159 ft 419 kts 45°
2026-05-07 23:48 35.13357 -116.36359 27654 ft 416 kts 45°
2026-05-07 23:48 35.15344 -116.33802 27080 ft 413 kts 45°
2026-05-07 23:49 35.17307 -116.31254 26477 ft 409 kts 45°
2026-05-07 23:49 35.19248 -116.28734 25863 ft 405 kts 45°
2026-05-07 23:49 35.21171 -116.26248 25265 ft 401 kts 45°
2026-05-07 23:49 35.22438 -116.24609 24870 ft 397 kts 45°
2026-05-07 23:50 35.24871 -116.21268 24102 ft 390 kts 46°
2026-05-07 23:50 35.26068 -116.19640 23721 ft 386 kts 46°
2026-05-07 23:50 35.27855 -116.17215 23108 ft 381 kts 46°
2026-05-07 23:50 35.30177 -116.14031 22233 ft 376 kts 46°
2026-05-07 23:51 35.31901 -116.11657 21627 ft 372 kts 46°
2026-05-07 23:51 35.33617 -116.09303 21056 ft 368 kts 46°
2026-05-07 23:51 35.35316 -116.06974 20515 ft 365 kts 46°
2026-05-07 23:51 35.36429 -116.05445 20188 ft 363 kts 47°
2026-05-07 23:52 35.38101 -116.03144 19714 ft 360 kts 47°
2026-05-07 23:52 35.39764 -116.00855 19254 ft 359 kts 47°
2026-05-07 23:52 35.41419 -115.98578 18782 ft 357 kts 47°
2026-05-07 23:52 35.43061 -115.96315 18327 ft 354 kts 47°
2026-05-07 23:53 35.44692 -115.94065 17871 ft 350 kts 47°
2026-05-07 23:53 35.46294 -115.91854 17395 ft 344 kts 47°
2026-05-07 23:53 35.47867 -115.89683 16942 ft 338 kts 47°
2026-05-07 23:53 35.49419 -115.87540 16495 ft 333 kts 46°
2026-05-07 23:54 35.50944 -115.85433 16045 ft 328 kts 46°
2026-05-07 23:54 35.52448 -115.83351 15596 ft 324 kts 47°
2026-05-07 23:54 35.53913 -115.81324 15170 ft 320 kts 46°
2026-05-07 23:54 35.55384 -115.79287 14732 ft 317 kts 46°
2026-05-07 23:55 35.56837 -115.77274 14305 ft 314 kts 47°
2026-05-07 23:55 35.58279 -115.75275 13898 ft 311 kts 46°
2026-05-07 23:55 35.59704 -115.73298 13436 ft 308 kts 46°
2026-05-07 23:55 35.61141 -115.71365 13043 ft 304 kts 46°
2026-05-07 23:56 35.62569 -115.69462 12656 ft 301 kts 45°
2026-05-07 23:56 35.63975 -115.67570 12280 ft 299 kts 46°
2026-05-07 23:56 35.65370 -115.65678 11908 ft 298 kts 46°
2026-05-07 23:56 35.66741 -115.63821 11599 ft 296 kts 46°
2026-05-07 23:57 35.68131 -115.61941 11346 ft 298 kts 46°
2026-05-07 23:57 35.69526 -115.60054 11117 ft 298 kts 47°
2026-05-07 23:57 35.70913 -115.58174 11024 ft 297 kts 46°
2026-05-07 23:57 35.72316 -115.56286 11025 ft 299 kts 45°
2026-05-07 23:58 35.73952 -115.54744 11018 ft 297 kts 29°
2026-05-07 23:58 35.75741 -115.53489 11032 ft 297 kts 26°
2026-05-07 23:58 35.77556 -115.52274 11026 ft 297 kts 27°
2026-05-07 23:58 35.79356 -115.51025 11015 ft 297 kts 28°
2026-05-07 23:59 35.81147 -115.49750 11018 ft 296 kts 28°
2026-05-07 23:59 35.82944 -115.48490 11032 ft 297 kts 27°
2026-05-07 23:59 35.84735 -115.47231 11018 ft 298 kts 28°
2026-05-07 23:59 35.86514 -115.45981 11024 ft 297 kts 28°
2026-05-08 00:00 35.88310 -115.44723 11029 ft 298 kts 28°
2026-05-08 00:00 35.90120 -115.43458 10978 ft 299 kts 28°
2026-05-08 00:00 35.91923 -115.42189 10815 ft 299 kts 27°
2026-05-08 00:00 35.93720 -115.40933 10596 ft 297 kts 29°
2026-05-08 00:01 35.95523 -115.39682 10425 ft 297 kts 27°
2026-05-08 00:01 35.97324 -115.38424 10259 ft 298 kts 26°
2026-05-08 00:01 35.99128 -115.37164 10101 ft 298 kts 27°
2026-05-08 00:01 36.00798 -115.35661 9938 ft 298 kts 49°
2026-05-08 00:02 36.01637 -115.33425 9775 ft 292 kts 82°
2026-05-08 00:02 36.01625 -115.31063 9572 ft 260 kts 96°
2026-05-08 00:02 36.01378 -115.28832 9359 ft 263 kts 97°
2026-05-08 00:02 36.01165 -115.26620 9204 ft 260 kts 94°
2026-05-08 00:03 36.01059 -115.24391 9022 ft 258 kts 92°
2026-05-08 00:03 36.00979 -115.22185 8832 ft 257 kts 92°
2026-05-08 00:03 36.00873 -115.19980 8639 ft 256 kts 93°
2026-05-08 00:03 36.00756 -115.17793 8460 ft 255 kts 93°
2026-05-08 00:04 36.00645 -115.15614 8265 ft 254 kts 93°
2026-05-08 00:04 36.00536 -115.13435 8071 ft 253 kts 93°
2026-05-08 00:04 36.00428 -115.11267 7876 ft 252 kts 93°
2026-05-08 00:04 36.00318 -115.09106 7690 ft 251 kts 93°
2026-05-08 00:05 36.00210 -115.06991 7543 ft 249 kts 94°
2026-05-08 00:05 36.00101 -115.04855 7428 ft 250 kts 93°
2026-05-08 00:05 35.99991 -115.02715 7306 ft 250 kts 94°
2026-05-08 00:05 35.99942 -115.00580 7186 ft 249 kts 85°
2026-05-08 00:06 35.99942 -114.98431 7029 ft 251 kts 90°
2026-05-08 00:06 35.99895 -114.96300 6911 ft 244 kts 90°
2026-05-08 00:06 35.99878 -114.94231 6787 ft 239 kts 87°
2026-05-08 00:06 36.00341 -114.92317 6650 ft 233 kts 53°
2026-05-08 00:07 36.01518 -114.91035 6493 ft 229 kts 30°
2026-05-08 00:07 36.02937 -114.90106 6236 ft 226 kts 17°
2026-05-08 00:07 36.04441 -114.90098 5881 ft 220 kts 341°
2026-05-08 00:07 36.05783 -114.90968 5564 ft 218 kts 326°
2026-05-08 00:08 36.06948 -114.92146 5203 ft 215 kts 305°
2026-05-08 00:08 36.07399 -114.93777 4798 ft 196 kts 274°
2026-05-08 00:08 36.07394 -114.95461 4359 ft 196 kts 269°
2026-05-08 00:08 36.07363 -114.97134 4004 ft 190 kts 270°
2026-05-08 00:09 36.07358 -114.98633 3767 ft 157 kts 270°
2026-05-08 00:09 36.07357 -114.99993 3778 ft 161 kts 271°
2026-05-08 00:09 36.07357 -115.01325 3779 ft 152 kts 270°
2026-05-08 00:09 36.07359 -115.02616 3615 ft 149 kts 269°
2026-05-08 00:10 36.07359 -115.03912 3435 ft 149 kts 269°
2026-05-08 00:10 36.07358 -115.05141 3258 ft 139 kts 269°
2026-05-08 00:10 36.07358 -115.06334 3087 ft 140 kts 270°
2026-05-08 00:10 36.07351 -115.07544 2952 ft 140 kts 270°
2026-05-08 00:11 36.07354 -115.08758 2788 ft 142 kts 272°
2026-05-08 00:11 36.07363 -115.09985 2624 ft 144 kts 272°
2026-05-08 00:11 36.07364 -115.11232 2407 ft 146 kts 272°
2026-05-08 00:11 36.07365 -115.12482 2184 ft 146 kts 272°
2026-05-08 00:12 36.07368 -115.13615 2119 ft 107 kts 269°
2026-05-08 00:12 36.07369 -115.14226 2127 ft 39 kts 276°
2026-05-08 00:12 36.07406 -115.14433 2128 ft 18 kts 291°
2026-05-08 00:12 36.07459 -115.14564 2129 ft 15 kts 299°
2026-05-08 00:13 36.07533 -115.14652 2129 ft 14 kts 347°
2026-05-08 00:13 36.07630 -115.14652 2127 ft 15 kts 358°
2026-05-08 00:13 36.07742 -115.14651 2125 ft 15 kts 20°
2026-05-08 00:13 36.07766 -115.14535 2121 ft 16 kts 94°
2026-05-08 00:14 36.07757 -115.14397 2125 ft 17 kts 99°
2026-05-08 00:14 36.07754 -115.14246 2121 ft 19 kts 89°
2026-05-08 00:14 36.07804 -115.14159 2119 ft 12 kts 356°
2026-05-08 00:14 36.07886 -115.14160 2117 ft 13 kts
2026-05-08 00:15 36.07956 -115.14127 2117 ft 10 kts 64°
2026-05-08 00:15 36.07990 -115.14049 2117 ft 7 kts 60°
2026-05-08 00:15 36.07993 -115.14044 2116 ft 0 kts 60°